GW4465 Weather Reports


Display with metric or nautical units.
time (UTC)temp
F
wind
direction
speed
MPH
gust
MPH
rain 1hr
in
rain 24hr
in
rain mn
in
humidity
%
barometer
mb
20260906090342 69 36 0.0 2.0 0.00 0.00 0.00 99 1016.2
20260906085836 69 337 2.0 2.0 0.00 0.00 0.00 99 1016.2
20260906085335 69 41 0.0 0.0 0.00 0.00 0.00 99 1015.9
20260906084830 69 324 0.0 0.0 0.00 0.00 0.00 99 1016.2
20260906084330 69 331 0.0 0.0 0.00 0.00 0.00 99 1016.2
20260906083824 69 312 0.0 0.0 0.00 0.00 0.00 99 1016.4
20260906083320 69 218 0.0 2.0 0.00 0.00 0.00 99 1016.5
20260906082814 69 6 0.0 2.0 0.00 0.00 0.00 99 1016.3
20260906082309 69 54 0.0 3.0 0.00 0.00 0.00 99 1016.2
20260906081805 69 50 2.0 3.0 0.00 0.00 0.00 99 1016.3
20260906081301 69 150 0.0 0.0 0.00 0.00 0.00 99 1016.3
20260906080757 69 23 0.0 2.0 0.00 0.00 0.00 99 1016.2
20260906080253 69 33 2.0 3.0 0.00 0.00 0.00 99 1016.2
20260906075747 69 68 2.0 3.0 0.00 0.00 0.00 99 1016.3
20260906075247 69 40 0.0 3.0 0.00 0.00 0.00 99 1016.2
20260906074743 69 25 0.0 2.0 0.00 0.00 0.00 99 1016.2
20260906074242 69 342 2.0 2.0 0.00 0.00 0.00 99 1015.9
20260906073742 69 21 2.0 2.0 0.00 0.00 0.00 99 1016.1
20260906073236 69 27 3.0 3.0 0.00 0.00 0.00 99 1015.9
20260906072732 69 23 0.0 2.0 0.00 0.00 0.00 99 1015.7
20260906072228 69 30 0.0 3.0 0.00 0.00 0.00 99 1015.9
20260906071724 69 324 0.0 0.0 0.00 0.00 0.00 99 1015.8
20260906071224 69 159 0.0 2.0 0.00 0.00 0.00 99 1016.2
20260906070720 69 68 2.0 3.0 0.00 0.00 0.00 99 1016.3
20260906070216 69 17 0.0 2.0 0.00 0.00 0.00 99 1016.2
20260906065715 69 306 3.0 3.0 0.00 0.00 0.00 99 1016.1
20260906065211 69 347 2.0 2.0 0.00 0.00 0.00 99 1016.1
20260906064706 69 16 0.0 2.0 0.00 0.00 0.00 99 1016.2
20260906064201 69 25 0.0 2.0 0.00 0.00 0.00 99 1015.9
20260906063656 69 23 0.0 2.0 0.00 0.00 0.00 99 1015.9
20260906063152 69 46 0.0 3.0 0.00 0.00 0.00 99 1016.3
20260906062648 69 32 0.0 2.0 0.00 0.00 0.00 99 1016.3
20260906062146 69 311 0.0 2.0 0.00 0.00 0.00 99 1016.2
20260906061643 69 305 0.0 2.0 0.00 0.00 0.00 99 1016.1
20260906061142 69 306 0.0 2.0 0.00 0.00 0.00 99 1016.3
20260906060639 69 50 0.0 2.0 0.00 0.00 0.00 99 1016.2
20260906060136 69 63 2.0 3.0 0.00 0.00 0.00 99 1016.4
20260906055631 69 33 0.0 3.0 0.00 0.00 0.00 99 1016.6
20260906055126 69 50 2.0 3.0 0.00 0.00 0.00 99 1016.7
20260906054621 69 344 2.0 2.0 0.00 0.00 0.00 99 1016.8
20260906054116 69 51 0.0 0.0 0.00 0.00 0.00 99 1016.8
20260906053613 69 27 0.0 2.0 0.00 0.00 0.00 99 1016.8
20260906053108 69 76 2.0 3.0 0.00 0.00 0.00 99 1017.0
20260906052604 69 60 0.0 3.0 0.00 0.00 0.00 99 1017.0
20260906052100 69 53 0.0 3.0 0.00 0.00 0.00 99 1017.0
20260906051556 69 71 2.0 2.0 0.00 0.00 0.00 99 1017.0
20260906051051 69 71 0.0 0.0 0.00 0.00 0.00 99 1017.0
20260906050546 69 60 2.0 3.0 0.00 0.00 0.00 99 1017.2
20260906050041 69 22 0.0 2.0 0.00 0.00 0.00 99 1017.2
20260906045539 69 66 0.0 0.0 0.00 0.00 0.00 99 1017.3
20260906045035 69 51 3.0 3.0 0.00 0.00 0.00 99 1017.5
20260906044531 69 283 0.0 3.0 0.00 0.00 0.00 99 1017.2
20260906044026 69 59 0.0 2.0 0.00 0.00 0.00 99 1017.3
20260906043521 69 63 3.0 4.0 0.00 0.00 0.00 99 1017.1
20260906043018 69 38 0.0 2.0 0.00 0.00 0.00 99 1017.2
20260906042517 69 119 0.0 2.0 0.00 0.00 0.00 99 1016.9
20260906042016 69 68 3.0 3.0 0.00 0.00 0.00 99 1017.0
20260906041514 69 36 0.0 0.0 0.00 0.00 0.00 99 1017.0
20260906041013 69 19 0.0 0.0 0.00 0.00 0.00 99 1017.0
20260906040508 69 338 0.0 3.0 0.00 0.00 0.00 99 1017.0
20260906040003 69 214 0.0 3.0 0.00 0.00 0.00 99 1017.2
20260906035458 69 344 2.0 3.0 0.00 0.00 0.00 99 1017.3
20260906034954 69 84 3.0 4.0 0.00 0.00 0.00 99 1017.2
20260906034454 69 20 0.0 2.0 0.00 0.00 0.00 99 1017.1
20260906033950 69 83 2.0 3.0 0.00 0.00 0.00 99 1017.1
20260906033449 69 155 0.0 3.0 0.00 0.00 0.00 99 1017.4
20260906032946 69 19 0.0 2.0 0.00 0.00 0.00 99 1017.2
20260906032443 69 338 0.0 2.0 0.00 0.00 0.00 99 1017.1
20260906031942 69 17 0.0 2.0 0.00 0.00 0.00 99 1017.1
20260906031437 69 71 0.0 0.0 0.00 0.00 0.00 99 1017.2
20260906030932 69 308 0.0 3.0 0.00 0.00 0.00 99 1017.2
20260906030427 69 321 3.0 4.0 0.00 0.00 0.00 99 1017.1
20260906025922 69 313 2.0 3.0 0.00 0.00 0.00 99 1017.1
20260906025416 69 43 2.0 3.0 0.00 0.00 0.00 99 1017.0
20260906024915 69 118 2.0 4.0 0.00 0.00 0.00 99 1017.1
20260906024414 69 311 0.0 0.0 0.00 0.00 0.00 99 1017.2
20260906023910 69 304 2.0 3.0 0.00 0.00 0.00 99 1017.3
20260906023407 69 78 3.0 4.0 0.00 0.00 0.00 99 1017.2
20260906022906 69 282 2.0 3.0 0.00 0.00 0.00 99 1017.3
20260906022401 69 72 3.0 4.0 0.00 0.00 0.00 99 1016.9
20260906021857 70 163 0.0 2.0 0.00 0.00 0.00 99 1016.8
20260906021356 69 44 0.0 3.0 0.00 0.00 0.00 99 1017.0
20260906020851 69 186 2.0 3.0 0.00 0.00 0.00 99 1017.1
20260906020345 69 72 2.0 3.0 0.00 0.00 0.00 99 1016.9
20260906015839 70 340 2.0 3.0 0.00 0.00 0.00 99 1016.7
20260906015338 70 48 0.0 3.0 0.00 0.00 0.00 99 1016.6
20260906014833 70 83 2.0 3.0 0.00 0.00 0.00 98 1016.5
20260906014327 70 351 2.0 3.0 0.00 0.00 0.00 98 1016.7
20260906013824 70 323 0.0 2.0 0.00 0.00 0.00 98 1016.6
20260906013318 70 33 2.0 3.0 0.00 0.00 0.00 98 1016.6
20260906012814 70 220 0.0 2.0 0.00 0.00 0.00 98 1016.6
20260906012309 70 119 0.0 2.0 0.00 0.00 0.00 98 1016.7
20260906011804 70 115 0.0 2.0 0.00 0.00 0.00 98 1016.7
20260906011304 70 135 0.0 3.0 0.00 0.00 0.00 98 1016.4
20260906010800 70 135 0.0 2.0 0.00 0.00 0.00 98 1016.5
20260906010256 70 132 0.0 2.0 0.00 0.00 0.00 98 1016.2
20260906005750 70 142 2.0 2.0 0.00 0.00 0.00 97 1016.2
20260906005250 71 55 3.0 3.0 0.00 0.00 0.00 97 1016.3
20260906004749 71 324 0.0 0.0 0.00 0.00 0.00 96 1016.2
20260906004244 71 44 0.0 3.0 0.00 0.00 0.00 97 1016.2
20260906003738 71 259 0.0 0.0 0.00 0.00 0.00 96 1016.3
20260906003234 71 259 0.0 0.0 0.00 0.00 0.00 95 1016.5
20260906002729 71 119 2.0 3.0 0.00 0.00 0.00 95 1016.3
20260906002228 71 162 0.0 0.0 0.00 0.00 0.00 95 1016.2
20260906001724 72 162 0.0 0.0 0.00 0.00 0.00 95 1016.1
20260906001220 72 129 0.0 2.0 0.00 0.00 0.00 95 1016.3
20260906000715 72 194 0.0 0.0 0.00 0.00 0.00 95 1016.2
20260906000212 72 80 0.0 0.0 0.00 0.00 0.00 94 1016.2
20260905235709 73 308 0.0 0.0 0.00 0.00 0.00 94 1016.1
20260905235204 73 177 0.0 3.0 0.00 0.00 0.00 94 1016.1
20260905234700 73 201 0.0 2.0 0.00 0.00 0.00 93 1016.1
20260905234155 73 171 2.0 2.0 0.00 0.00 0.00 93 1016.2
20260905233650 73 315 0.0 2.0 0.00 0.00 0.00 93 1016.2
20260905233149 74 209 0.0 3.0 0.00 0.00 0.00 92 1015.8
20260905232644 74 175 0.0 2.0 0.00 0.00 0.00 92 1015.9
20260905232140 74 197 3.0 3.0 0.00 0.00 0.00 91 1015.9
20260905231635 74 124 0.0 3.0 0.00 0.00 0.00 91 1015.9
20260905231131 74 163 0.0 2.0 0.00 0.00 0.00 93 1015.7
20260905230627 74 210 0.0 2.0 0.00 0.00 0.00 93 1015.8
20260905230125 74 144 0.0 0.0 0.00 0.00 0.00 93 1015.5
20260905225624 74 217 0.0 2.0 0.00 0.00 0.00 92 1015.6
20260905225114 74 145 3.0 3.0 0.00 0.00 0.00 91 1015.5
20260905224614 75 104 3.0 3.0 0.00 0.00 0.00 91 1015.6
20260905224113 75 197 0.0 2.0 0.00 0.00 0.00 91 1015.8
20260905223610 75 118 3.0 3.0 0.00 0.00 0.00 91 1015.7
20260905223107 75 231 3.0 3.0 0.00 0.00 0.00 90 1015.7
20260905222606 75 49 2.0 3.0 0.00 0.00 0.00 89 1015.6
20260905222101 75 139 0.0 0.0 0.00 0.00 0.00 90 1015.5
20260905221557 75 119 0.0 2.0 0.00 0.00 0.00 88 1015.8
20260905221053 76 121 0.0 2.0 0.00 0.00 0.00 87 1015.8
20260905220548 76 214 0.0 3.0 0.00 0.00 0.00 88 1015.8
20260905220045 76 141 3.0 3.0 0.00 0.00 0.00 86 1015.8
20260905215544 76 246 0.0 2.0 0.00 0.00 0.00 88 1015.9
20260905215040 76 22 0.0 2.0 0.00 0.00 0.00 88 1015.9
20260905214536 76 191 0.0 3.0 0.00 0.00 0.00 89 1015.7
20260905214031 76 58 0.0 0.0 0.00 0.00 0.00 89 1015.8
20260905213526 76 244 2.0 2.0 0.00 0.00 0.00 88 1015.8
20260905213022 76 139 0.0 2.0 0.00 0.00 0.00 90 1015.7
20260905212516 76 335 0.0 3.0 0.00 0.00 0.00 89 1015.9
20260905212017 76 182 0.0 4.0 0.00 0.00 0.00 87 1016.2
20260905211511 76 132 2.0 3.0 0.00 0.00 0.00 90 1016.3
20260905211007 75 139 0.0 2.0 0.00 0.00 0.00 90 1016.3
20260905210503 75 134 2.0 3.0 0.00 0.00 0.00 90 1016.4
20260905210002 75 224 0.0 3.0 0.00 0.00 0.00 89 1016.4
20260905205456 75 203 0.0 3.0 0.00 0.00 0.00 89 1016.4
20260905204955 75 111 3.0 3.0 0.00 0.00 0.00 88 1016.3
20260905204446 76 156 3.0 3.0 0.00 0.00 0.00 88 1016.6
20260905203945 76 155 2.0 3.0 0.00 0.00 0.00 87 1016.6
20260905203440 76 105 4.0 5.0 0.00 0.00 0.00 86 1016.3
20260905202935 76 135 0.0 2.0 0.00 0.00 0.00 87 1016.3
20260905202425 76 156 3.0 5.0 0.00 0.00 0.00 86 1016.6
20260905201920 77 132 3.0 6.0 0.00 0.00 0.00 85 1016.7
20260905201416 77 152 2.0 5.0 0.00 0.00 0.00 81 1016.6
20260905200915 77 236 3.0 4.0 0.00 0.00 0.00 80 1016.4
20260905200412 78 119 2.0 4.0 0.00 0.00 0.00 79 1016.6
20260905195909 78 154 0.0 4.0 0.00 0.00 0.00 78 1016.5
20260905195405 78 180 0.0 5.0 0.00 0.00 0.00 80 1016.5
20260905194901 79 257 0.0 2.0 0.00 0.00 0.00 80 1016.7
20260905194359 79 7 0.0 3.0 0.00 0.00 0.00 79 1016.6
20260905193854 80 271 3.0 4.0 0.00 0.00 0.00 80 1016.6
20260905193349 81 154 0.0 3.0 0.00 0.00 0.00 79 1016.6
20260905192844 81 162 5.0 6.0 0.00 0.00 0.00 76 1016.5
20260905192340 82 114 3.0 6.0 0.00 0.00 0.00 73 1016.1
20260905191839 83 137 4.0 6.0 0.00 0.00 0.00 71 1015.9
20260905191338 85 177 4.0 5.0 0.00 0.00 0.00 67 1016.1
20260905190837 85 155 0.0 6.0 0.00 0.00 0.00 63 1016.4
20260905190336 85 134 5.0 5.0 0.00 0.00 0.00 62 1016.5
20260905185835 85 198 3.0 3.0 0.00 0.00 0.00 67 1016.3
20260905185331 85 152 3.0 5.0 0.00 0.00 0.00 62 1016.4
20260905184829 85 102 3.0 6.0 0.00 0.00 0.00 62 1016.6
20260905184329 85 189 0.0 5.0 0.00 0.00 0.00 65 1016.4
20260905183827 85 335 0.0 5.0 0.00 0.00 0.00 63 1016.5
20260905183323 84 145 2.0 3.0 0.00 0.00 0.00 65 1016.5
20260905182818 85 143 3.0 3.0 0.00 0.00 0.00 68 1016.3
20260905182317 86 258 3.0 9.0 0.00 0.00 0.00 65 1016.2
20260905181807 87 134 5.0 9.0 0.00 0.00 0.00 67 1015.9
20260905181307 87 110 4.0 4.0 0.00 0.00 0.00 65 1016.2
20260905180806 86 95 5.0 7.0 0.00 0.00 0.00 65 1016.3
20260905180301 86 165 2.0 5.0 0.00 0.00 0.00 66 1016.5
20260905175756 86 109 3.0 5.0 0.00 0.00 0.00 67 1016.8
20260905175251 86 182 0.0 3.0 0.00 0.00 0.00 65 1016.9
20260905174746 86 94 3.0 3.0 0.00 0.00 0.00 69 1016.9
20260905174241 86 195 3.0 5.0 0.00 0.00 0.00 70 1017.0
20260905173738 85 104 3.0 4.0 0.00 0.00 0.00 67 1017.2
20260905173233 85 105 5.0 7.0 0.00 0.00 0.00 70 1017.0
20260905172732 84 111 2.0 5.0 0.00 0.00 0.00 69 1017.0
20260905172226 85 111 3.0 5.0 0.00 0.00 0.00 71 1017.2
20260905171717 85 91 3.0 5.0 0.00 0.00 0.00 67 1017.2
20260905171213 85 68 2.0 3.0 0.00 0.00 0.00 76 1017.2
20260905170710 85 85 4.0 4.0 0.00 0.00 0.00 76 1017.1
20260905170209 84 100 2.0 4.0 0.00 0.00 0.00 77 1017.3
20260905165709 84 86 3.0 3.0 0.00 0.00 0.00 74 1017.3
20260905165204 83 147 0.0 5.0 0.00 0.00 0.00 74 1017.2
20260905164659 83 50 0.0 2.0 0.00 0.00 0.00 78 1017.2
20260905164159 82 103 2.0 3.0 0.00 0.00 0.00 79 1017.5
20260905163654 82 134 2.0 3.0 0.00 0.00 0.00 82 1018.0
20260905163151 81 84 2.0 3.0 0.00 0.00 0.00 80 1017.9
20260905162647 80 135 0.0 4.0 0.00 0.00 0.00 83 1018.1
20260905162147 80 76 0.0 4.0 0.00 0.00 0.00 83 1018.1
20260905161647 80 44 0.0 3.0 0.00 0.00 0.00 86 1018.1
20260905161144 79 93 2.0 3.0 0.00 0.00 0.00 86 1018.1
20260905160638 78 108 0.0 3.0 0.00 0.00 0.00 87 1018.1
20260905160132 78 49 2.0 3.0 0.00 0.00 0.00 89 1018.1
20260905155626 77 69 2.0 3.0 0.00 0.00 0.00 90 1018.2
20260905155125 77 235 0.0 3.0 0.00 0.00 0.00 90 1018.3
20260905154620 76 41 0.0 2.0 0.00 0.00 0.00 94 1018.2
20260905154115 75 315 0.0 2.0 0.00 0.00 0.00 94 1018.2
20260905153611 75 100 2.0 3.0 0.00 0.00 0.00 96 1018.2
20260905153107 75 125 2.0 3.0 0.00 0.00 0.00 96 1018.4
20260905152601 74 113 0.0 0.0 0.00 0.00 0.00 95 1018.5
20260905152056 74 40 0.0 3.0 0.00 0.00 0.00 95 1018.6
20260905151551 73 76 2.0 3.0 0.00 0.00 0.00 96 1018.5
20260905151046 73 345 2.0 3.0 0.00 0.00 0.00 96 1018.6
20260905150541 73 77 2.0 4.0 0.00 0.00 0.00 97 1018.6
20260905150039 72 78 2.0 3.0 0.00 0.00 0.00 98 1018.8
20260905145532 72 128 0.0 2.0 0.00 0.00 0.00 99 1018.9
20260905145032 71 356 0.0 3.0 0.00 0.00 0.00 99 1018.9
20260905144527 71 64 2.0 4.0 0.00 0.00 0.00 99 1018.8
20260905144026 71 67 3.0 4.0 0.00 0.00 0.00 99 1018.9
20260905143525 71 47 0.0 3.0 0.00 0.00 0.00 99 1018.9
20260905143021 71 37 2.0 4.0 0.00 0.00 0.00 99 1019.1
20260905142519 71 49 3.0 4.0 0.00 0.00 0.00 99 1019.1
20260905142015 70 76 2.0 5.0 0.00 0.00 0.00 99 1019.2
20260905141509 70 59 3.0 3.0 0.00 0.00 0.00 99 1018.9
20260905141006 70 41 3.0 3.0 0.00 0.00 0.00 99 1019.2
20260905140500 70 98 2.0 3.0 0.00 0.00 0.00 99 1019.4
20260905135959 70 13 0.0 0.0 0.00 0.00 0.00 99 1019.1
20260905135455 70 13 0.0 2.0 0.00 0.00 0.00 99 1019.2
20260905134950 70 47 3.0 3.0 0.00 0.00 0.00 99 1019.2
20260905134449 70 11 0.0 3.0 0.00 0.00 0.00 99 1019.5
20260905133948 69 45 0.0 3.0 0.00 0.00 0.00 99 1019.4
20260905133443 69 101 2.0 3.0 0.00 0.00 0.00 99 1019.6
20260905132938 69 72 2.0 3.0 0.00 0.00 0.00 99 1019.4
20260905132433 69 92 2.0 3.0 0.00 0.00 0.00 99 1019.6
20260905131927 69 81 2.0 2.0 0.00 0.00 0.00 99 1019.2
20260905131423 69 58 0.0 2.0 0.00 0.00 0.00 99 1019.6
20260905130918 69 34 2.0 3.0 0.00 0.00 0.00 99 1019.6
20260905130417 69 183 0.0 0.0 0.00 0.00 0.00 99 1019.5
20260905125912 69 210 0.0 0.0 0.00 0.00 0.00 99 1019.5
20260905125407 69 230 0.0 3.0 0.00 0.00 0.00 99 1019.5
20260905124902 69 47 2.0 3.0 0.00 0.00 0.00 99 1019.5
20260905124359 69 0 0.0 2.0 0.00 0.00 0.00 99 1019.4
20260905123859 69 21 0.0 0.0 0.00 0.00 0.00 99 1019.5
20260905123356 69 44 0.0 2.0 0.00 0.00 0.00 99 1019.2
20260905122856 69 40 0.0 2.0 0.00 0.00 0.00 99 1019.2
20260905122355 69 27 3.0 3.0 0.00 0.00 0.00 99 1019.4
20260905121850 69 44 0.0 2.0 0.00 0.00 0.00 99 1019.0
20260905121347 69 23 0.0 2.0 0.00 0.00 0.00 99 1019.4
20260905120845 69 58 2.0 3.0 0.00 0.00 0.00 99 1019.1
20260905120340 69 61 3.0 3.0 0.00 0.00 0.00 99 1019.1
20260905115836 69 45 0.0 3.0 0.00 0.00 0.00 99 1019.2
20260905115335 69 66 2.0 3.0 0.00 0.00 0.00 99 1019.0
20260905114835 69 52 2.0 3.0 0.00 0.00 0.00 99 1018.8
20260905114334 69 46 0.0 3.0 0.00 0.00 0.00 99 1018.9
20260905113833 69 41 0.0 2.0 0.00 0.00 0.00 99 1019.0
20260905113330 69 0 0.0 2.0 0.00 0.00 0.00 99 1018.8
20260905112825 69 351 0.0 3.0 0.00 0.00 0.00 99 1018.7
20260905112319 69 50 3.0 3.0 0.00 0.00 0.00 99 1018.7
20260905111815 69 31 0.0 3.0 0.00 0.00 0.00 99 1018.6
20260905111309 69 52 0.0 3.0 0.00 0.00 0.00 99 1018.3
20260905110809 69 50 0.0 2.0 0.00 0.00 0.00 99 1018.4
20260905110308 69 33 0.0 3.0 0.00 0.00 0.00 99 1018.5
20260905105803 69 39 2.0 3.0 0.00 0.00 0.00 99 1018.5
20260905105306 69 31 0.0 2.0 0.00 0.00 0.00 99 1018.3
20260905104757 69 52 0.0 3.0 0.00 0.00 0.00 99 1018.3
20260905104253 69 49 0.0 3.0 0.00 0.00 0.00 99 1018.4
20260905103753 69 23 0.0 0.0 0.00 0.00 0.00 99 1018.0
20260905103248 69 49 0.0 2.0 0.00 0.00 0.00 99 1018.1
20260905102744 69 35 2.0 2.0 0.00 0.00 0.00 99 1018.2
20260905102241 69 156 0.0 0.0 0.00 0.00 0.00 99 1018.1
20260905101740 69 319 0.0 0.0 0.00 0.00 0.00 99 1018.0
20260905101238 69 303 0.0 0.0 0.00 0.00 0.00 99 1017.9
20260905100734 69 59 0.0 2.0 0.00 0.00 0.00 99 1018.0
20260905100230 69 44 0.0 3.0 0.00 0.00 0.00 99 1018.0
20260905095729 69 356 2.0 3.0 0.00 0.00 0.00 99 1017.9
20260905095229 69 71 0.0 2.0 0.00 0.00 0.00 99 1018.1
20260905094724 69 30 0.0 2.0 0.00 0.00 0.00 99 1018.1
20260905094219 69 38 0.0 3.0 0.00 0.00 0.00 99 1018.0
20260905093718 69 23 0.0 2.0 0.00 0.00 0.00 99 1018.0
20260905093209 69 30 0.0 0.0 0.00 0.00 0.00 99 1017.9
20260905092704 69 47 0.0 2.0 0.00 0.00 0.00 99 1018.0
20260905092159 69 31 0.0 2.0 0.00 0.00 0.00 99 1018.0
20260905091653 69 47 0.0 3.0 0.00 0.00 0.00 99 1017.8
20260905091153 69 49 0.0 2.0 0.00 0.00 0.00 99 1017.8
20260905090648 69 12 0.0 2.0 0.00 0.00 0.00 99 1017.8